TimeMST,TemperatureF,Dew PointF,Humidity,Sea Level PressureIn,VisibilityMPH,Wind Direction,Wind SpeedMPH,Gust SpeedMPH,PrecipitationIn,Events,Conditions,WindDirDegrees,DateUTC
12:15 AM,28.4,24.8,86,29.96,10.0,NW,3.5,-,N/A,,Clear,320,2012-11-17 07:15:00
12:35 AM,28.4,24.8,86,29.96,10.0,NW,3.5,-,N/A,,Clear,310,2012-11-17 07:35:00
12:55 AM,26.6,24.8,93,29.95,10.0,Calm,Calm,-,N/A,,Clear,0,2012-11-17 07:55:00
1:15 AM,28.4,24.8,86,29.95,10.0,NW,4.6,-,N/A,,Clear,320,2012-11-17 08:15:00
1:35 AM,26.6,19.4,74,29.95,10.0,Calm,Calm,-,N/A,,Clear,0,2012-11-17 08:35:00
1:55 AM,26.6,23.0,86,29.95,10.0,Calm,Calm,-,N/A,,Clear,0,2012-11-17 08:55:00
2:15 AM,28.4,26.6,93,29.96,10.0,SE,3.5,-,N/A,,Clear,130,2012-11-17 09:15:00
2:35 AM,24.8,21.2,86,29.96,10.0,Calm,Calm,-,N/A,,Clear,0,2012-11-17 09:35:00
2:55 AM,26.6,23.0,86,29.96,10.0,Calm,Calm,-,N/A,,Clear,0,2012-11-17 09:55:00
3:15 AM,26.6,23.0,86,29.96,10.0,SE,3.5,-,N/A,,Clear,140,2012-11-17 10:15:00
3:55 AM,28.4,24.8,86,29.96,10.0,Calm,Calm,-,N/A,,Partly Cloudy,0,2012-11-17 10:55:00
4:15 AM,28.4,24.8,86,29.97,10.0,Calm,Calm,-,N/A,,Partly Cloudy,0,2012-11-17 11:15:00
4:35 AM,28.4,26.6,93,29.96,10.0,ENE,3.5,-,N/A,,Clear,70,2012-11-17 11:35:00
4:55 AM,30.2,26.6,86,29.97,10.0,SSW,3.5,-,N/A,,Clear,200,2012-11-17 11:55:00
5:35 AM,30.2,26.6,86,29.97,10.0,South,5.8,-,N/A,,Partly Cloudy,190,2012-11-17 12:35:00
5:55 AM,30.2,26.6,86,29.98,10.0,West,6.9,-,N/A,,Scattered Clouds,260,2012-11-17 12:55:00
6:15 AM,30.2,26.6,86,29.98,10.0,SW,9.2,-,N/A,,Mostly Cloudy,220,2012-11-17 13:15:00
6:35 AM,30.2,26.6,86,29.98,10.0,SW,6.9,-,N/A,,Overcast,230,2012-11-17 13:35:00
6:55 AM,30.2,26.6,86,29.98,10.0,WSW,6.9,-,N/A,,Overcast,250,2012-11-17 13:55:00
7:15 AM,30.2,26.6,86,29.98,10.0,SW,5.8,-,N/A,,Overcast,220,2012-11-17 14:15:00
7:35 AM,30.2,26.6,86,29.98,10.0,SW,5.8,-,N/A,,Overcast,220,2012-11-17 14:35:00
7:55 AM,32.0,28.4,87,30.00,10.0,SSW,4.6,-,N/A,,Overcast,210,2012-11-17 14:55:00
8:15 AM,33.8,26.6,75,30.00,10.0,SSW,5.8,-,N/A,,Overcast,200,2012-11-17 15:15:00
8:35 AM,28.4,26.6,93,30.00,10.0,SSE,5.8,-,N/A,,Scattered Clouds,160,2012-11-17 15:35:00
8:55 AM,30.2,26.6,86,30.00,10.0,South,5.8,-,N/A,,Clear,170,2012-11-17 15:55:00
9:15 AM,32.0,28.4,87,30.00,10.0,South,6.9,-,N/A,,Clear,170,2012-11-17 16:15:00
9:35 AM,33.8,26.6,75,30.01,10.0,SSE,4.6,-,N/A,,Clear,160,2012-11-17 16:35:00
9:55 AM,35.6,28.4,75,30.01,10.0,South,5.8,-,N/A,,Clear,190,2012-11-17 16:55:00
10:15 AM,35.6,28.4,75,30.01,10.0,SSW,5.8,-,N/A,,Clear,210,2012-11-17 17:15:00
10:35 AM,37.4,30.2,75,30.00,10.0,SSW,8.1,-,N/A,,Clear,200,2012-11-17 17:35:00
10:55 AM,37.4,30.2,75,30.00,10.0,SSW,5.8,-,N/A,,Clear,200,2012-11-17 17:55:00
11:15 AM,37.4,30.2,75,29.99,10.0,South,10.4,-,N/A,,Clear,190,2012-11-17 18:15:00
11:35 AM,39.2,30.2,70,29.98,10.0,SSW,6.9,-,N/A,,Clear,200,2012-11-17 18:35:00
11:55 AM,39.2,30.2,70,29.98,10.0,SSW,6.9,-,N/A,,Clear,200,2012-11-17 18:55:00
12:15 PM,39.2,30.2,70,29.97,10.0,South,8.1,-,N/A,,Clear,180,2012-11-17 19:15:00
12:35 PM,39.2,30.2,70,29.97,10.0,South,10.4,-,N/A,,Clear,180,2012-11-17 19:35:00
12:55 PM,39.2,32.0,75,29.96,10.0,South,10.4,-,N/A,,Clear,180,2012-11-17 19:55:00
1:15 PM,39.2,32.0,75,29.96,10.0,South,11.5,-,N/A,,Clear,190,2012-11-17 20:15:00
1:35 PM,41.0,30.2,65,29.95,10.0,SSW,6.9,-,N/A,,Clear,210,2012-11-17 20:35:00
1:55 PM,41.0,30.2,65,29.95,10.0,SSW,11.5,-,N/A,,Clear,200,2012-11-17 20:55:00
2:15 PM,41.0,32.0,70,29.95,10.0,SSW,9.2,-,N/A,,Clear,200,2012-11-17 21:15:00
2:35 PM,42.8,30.2,61,29.95,10.0,SSW,6.9,-,N/A,,Clear,210,2012-11-17 21:35:00
2:55 PM,42.8,30.2,61,29.95,10.0,SSW,8.1,-,N/A,,Clear,210,2012-11-17 21:55:00
3:15 PM,42.8,30.2,61,29.94,10.0,SW,6.9,-,N/A,,Clear,230,2012-11-17 22:15:00
3:35 PM,42.8,30.2,61,29.94,10.0,SW,4.6,-,N/A,,Clear,220,2012-11-17 22:35:00
3:55 PM,41.0,30.2,65,29.93,10.0,WSW,5.8,-,N/A,,Clear,250,2012-11-17 22:55:00
4:15 PM,39.2,30.2,70,29.93,10.0,WSW,4.6,-,N/A,,Clear,250,2012-11-17 23:15:00
4:35 PM,35.6,28.4,75,29.93,10.0,Calm,Calm,-,N/A,,Clear,0,2012-11-17 23:35:00
4:55 PM,35.6,28.4,75,29.93,10.0,WSW,5.8,-,N/A,,Clear,250,2012-11-17 23:55:00
5:15 PM,35.6,26.6,70,29.93,10.0,WSW,4.6,-,N/A,,Clear,250,2012-11-18 00:15:00
5:35 PM,37.4,30.2,75,29.93,10.0,Calm,Calm,-,N/A,,Clear,0,2012-11-18 00:35:00
5:55 PM,37.4,30.2,75,29.93,10.0,WSW,3.5,-,N/A,,Clear,250,2012-11-18 00:55:00
6:15 PM,35.6,30.2,81,29.92,10.0,WSW,4.6,-,N/A,,Clear,240,2012-11-18 01:15:00
6:35 PM,33.8,28.4,81,29.92,10.0,WSW,4.6,-,N/A,,Clear,240,2012-11-18 01:35:00
6:55 PM,33.8,26.6,75,29.91,10.0,SW,3.5,-,N/A,,Clear,220,2012-11-18 01:55:00
7:15 PM,33.8,28.4,81,29.91,10.0,SW,3.5,-,N/A,,Clear,220,2012-11-18 02:15:00
7:35 PM,32.0,24.8,75,29.90,10.0,Calm,Calm,-,N/A,,Clear,0,2012-11-18 02:35:00
8:15 PM,33.8,28.4,81,29.90,10.0,Calm,Calm,-,N/A,,Clear,0,2012-11-18 03:15:00
8:35 PM,28.4,24.8,86,29.90,10.0,Calm,Calm,-,N/A,,Clear,0,2012-11-18 03:35:00
8:55 PM,33.8,30.2,87,29.89,10.0,Calm,Calm,-,N/A,,Clear,0,2012-11-18 03:55:00
9:15 PM,30.2,28.4,93,29.89,10.0,ENE,3.5,-,N/A,,Clear,70,2012-11-18 04:15:00
9:36 PM,32.0,28.4,87,29.89,10.0,Calm,Calm,-,N/A,,Clear,0,2012-11-18 04:36:00
9:55 PM,30.2,26.6,86,29.88,10.0,Calm,Calm,-,N/A,,Clear,0,2012-11-18 04:55:00
10:15 PM,32.0,30.2,93,29.88,10.0,Calm,Calm,-,N/A,,Clear,0,2012-11-18 05:15:00
10:35 PM,30.2,30.2,100,29.87,10.0,Calm,Calm,-,N/A,,Clear,0,2012-11-18 05:35:00
10:55 PM,30.2,26.6,86,29.87,10.0,Calm,Calm,-,N/A,,Clear,0,2012-11-18 05:55:00
11:15 PM,26.6,24.8,93,29.86,10.0,North,4.6,-,N/A,,Clear,360,2012-11-18 06:15:00
11:35 PM,32.0,30.2,93,29.86,10.0,Calm,Calm,-,N/A,,Clear,0,2012-11-18 06:35:00
11:55 PM,30.2,26.6,86,29.86,10.0,South,3.5,-,N/A,,Clear,180,2012-11-18 06:55:00